When you browse on this site, cookies collect data to enhance your experience and personalize the content and advertising you see.
Visit our Privacy Policy to learn more. By continuing to use the site, you agree to this use of cookies and data.
  • In Hungary
  • List of Countries
  • For 7 days
  • Water Temperature
  • Weather Map
  • News
  • Weather Widgets
  • user-avatar
    Login

    Hourly Weather Kozly

    Today, 25 August, Sunday

    Time Temperature Precipitation Wind Pressure Humidity
    00:00 +14°C° 0 mm 1 mps 764 mmHg 86%
    01:00 +13°C° 0 mm 1 mps 764 mmHg 87%
    02:00 +12°C° 0 mm 1 mps 765 mmHg 88%
    03:00 +12°C° 0 mm 1 mps 765 mmHg 89%
    04:00 +10°C° 0 mm 0 mps 765 mmHg 91%
    05:00 +10°C° 0 mm 0 mps 765 mmHg 92%
    06:00 +12°C° 0 mm 0 mps 765 mmHg 85%
    07:00 +14°C° 0 mm 0 mps 765 mmHg 79%
    08:00 +16°C° 0 mm 0 mps 766 mmHg 71%
    09:00 +17°C° 0 mm 0 mps 766 mmHg 65%
    10:00 +21°C° 0 mm 1 mps 766 mmHg 60%
    11:00 +22°C° 0 mm 1 mps 766 mmHg 55%
    12:00 +21°C° 0 mm 0 mps 766 mmHg 53%
    13:00 +21°C° 0 mm 0 mps 765 mmHg 51%
    14:00 +22°C° 0 mm 0 mps 766 mmHg 49%
    15:00 +21°C° 0 mm 0 mps 765 mmHg 52%
    16:00 +21°C° 0 mm 0 mps 765 mmHg 55%
    17:00 +21°C° 0 mm 0 mps 765 mmHg 57%
    18:00 +21°C° 0 mm 1 mps 765 mmHg 63%
    19:00 +19°C° 0 mm 1 mps 765 mmHg 69%
    20:00 +16°C° 0 mm 1 mps 765 mmHg 74%
    21:00 +15°C° 0 mm 1 mps 765 mmHg 76%
    22:00 +14°C° 0 mm 1 mps 765 mmHg 79%
    23:00 +14°C° 0 mm 2 mps 765 mmHg 81%

    Tomorrow, 26 August, Monday

    Time Temperature Precipitation Wind Pressure Humidity
    00:00 +13°C° 0 mm 1 mps 765 mmHg 83%
    01:00 +13°C° 0 mm 1 mps 765 mmHg 85%
    02:00 +13°C° 0 mm 1 mps 765 mmHg 88%
    03:00 +12°C° 0 mm 1 mps 765 mmHg 90%
    04:00 +12°C° 0 mm 2 mps 765 mmHg 91%
    05:00 +12°C° 0 mm 2 mps 765 mmHg 93%
    06:00 +14°C° 0 mm 2 mps 765 mmHg 88%
    07:00 +16°C° 0 mm 2 mps 764 mmHg 82%
    08:00 +17°C° 0 mm 2 mps 764 mmHg 76%
    09:00 +19°C° 0 mm 2 mps 764 mmHg 71%
    10:00 +21°C° 0 mm 2 mps 764 mmHg 65%
    11:00 +24°C° 0 mm 2 mps 763 mmHg 59%
    12:00 +24°C° 0 mm 2 mps 763 mmHg 59%
    13:00 +25°C° 0 mm 3 mps 763 mmHg 58%
    14:00 +26°C° 0 mm 3 mps 763 mmHg 58%
    15:00 +25°C° 0 mm 3 mps 762 mmHg 62%
    16:00 +25°C° 0 mm 2 mps 762 mmHg 67%
    17:00 +25°C° 0 mm 2 mps 762 mmHg 72%
    18:00 +23°C° 0 mm 2 mps 762 mmHg 77%
    19:00 +21°C° 0 mm 2 mps 762 mmHg 82%
    20:00 +19°C° 0 mm 2 mps 762 mmHg 87%
    21:00 +18°C° 0 mm 2 mps 762 mmHg 87%
    22:00 +17°C° 0 mm 2 mps 762 mmHg 87%
    23:00 +17°C° 0 mm 2 mps 762 mmHg 88%

    Day after tomorrow, 27 August, Tuesday

    Time Temperature Precipitation Wind Pressure Humidity
    00:00 +16°C° 0 mm 2 mps 762 mmHg 89%
    01:00 +16°C° 0 mm 2 mps 762 mmHg 90%
    02:00 +15°C° 0 mm 1 mps 762 mmHg 92%
    03:00 +15°C° 0 mm 1 mps 762 mmHg 93%
    04:00 +14°C° 0 mm 1 mps 762 mmHg 95%
    05:00 +14°C° 0 mm 1 mps 762 mmHg 96%
    06:00 +15°C° 0 mm 1 mps 763 mmHg 92%
    07:00 +18°C° 0 mm 1 mps 763 mmHg 88%
    08:00 +18°C° 0 mm 2 mps 763 mmHg 83%
    09:00 +20°C° 0 mm 2 mps 763 mmHg 77%
    10:00 +21°C° 0 mm 2 mps 763 mmHg 71%
    11:00 +24°C° 0 mm 2 mps 763 mmHg 64%
    12:00 +25°C° 0 mm 3 mps 763 mmHg 60%
    13:00 +25°C° 0 mm 3 mps 763 mmHg 57%
    14:00 +26°C° 0 mm 3 mps 763 mmHg 53%
    15:00 +25°C° 0 mm 3 mps 763 mmHg 55%
    16:00 +25°C° 0 mm 2 mps 763 mmHg 58%
    17:00 +24°C° 0 mm 2 mps 763 mmHg 61%
    18:00 +21°C° 0 mm 2 mps 763 mmHg 66%
    19:00 +19°C° 0 mm 2 mps 763 mmHg 71%
    20:00 +18°C° 0 mm 1 mps 763 mmHg 77%
    21:00 +16°C° 0 mm 1 mps 764 mmHg 78%
    22:00 +15°C° 0 mm 1 mps 764 mmHg 80%
    23:00 +15°C° 0 mm 1 mps 764 mmHg 82%

    28 August, Wednesday

    Time Temperature Precipitation Wind Pressure Humidity
    00:00 +14°C° 0 mm 1 mps 764 mmHg 83%
    01:00 +14°C° 0 mm 1 mps 764 mmHg 84%
    02:00 +13°C° 0 mm 1 mps 765 mmHg 86%
    03:00 +13°C° 0 mm 1 mps 765 mmHg 87%
    04:00 +13°C° 0 mm 1 mps 765 mmHg 89%
    05:00 +12°C° 0 mm 1 mps 765 mmHg 90%
    06:00 +14°C° 0 mm 1 mps 765 mmHg 84%
    07:00 +15°C° 0 mm 1 mps 765 mmHg 77%
    08:00 +18°C° 0 mm 1 mps 765 mmHg 71%
    09:00 +18°C° 0 mm 2 mps 765 mmHg 65%
    10:00 +20°C° 0 mm 2 mps 765 mmHg 59%
    11:00 +21°C° 0 mm 2 mps 765 mmHg 54%
    12:00 +23°C° 0 mm 2 mps 765 mmHg 53%
    13:00 +23°C° 0 mm 2 mps 765 mmHg 52%
    14:00 +24°C° 0 mm 2 mps 765 mmHg 52%
    15:00 +23°C° 0 mm 2 mps 764 mmHg 56%
    16:00 +23°C° 0 mm 2 mps 764 mmHg 60%
    17:00 +21°C° 0 mm 2 mps 764 mmHg 64%
    18:00 +20°C° 0 mm 2 mps 764 mmHg 69%
    19:00 +18°C° 0 mm 2 mps 764 mmHg 75%
    20:00 +16°C° 0 mm 2 mps 764 mmHg 80%
    21:00 +15°C° 0 mm 2 mps 764 mmHg 81%
    22:00 +14°C° 0 mm 2 mps 764 mmHg 82%
    23:00 +14°C° 0 mm 2 mps 764 mmHg 83%

    29 August, Thursday

    Time Temperature Precipitation Wind Pressure Humidity
    00:00 +13°C° 0 mm 2 mps 764 mmHg 84%
    01:00 +13°C° 0 mm 2 mps 764 mmHg 84%
    02:00 +12°C° 0 mm 2 mps 764 mmHg 85%
    03:00 +12°C° 0 mm 2 mps 764 mmHg 85%
    04:00 +12°C° 0 mm 2 mps 764 mmHg 86%
    05:00 +10°C° 0 mm 2 mps 764 mmHg 86%
    06:00 +13°C° 0 mm 2 mps 764 mmHg 80%
    07:00 +14°C° 0 mm 2 mps 764 mmHg 74%
    08:00 +16°C° 0 mm 2 mps 764 mmHg 69%
    09:00 +17°C° 0 mm 3 mps 764 mmHg 62%
    10:00 +19°C° 0 mm 3 mps 764 mmHg 56%
    11:00 +21°C° 0 mm 3 mps 764 mmHg 49%
    12:00 +21°C° 0 mm 3 mps 764 mmHg 47%
    13:00 +22°C° 0 mm 3 mps 763 mmHg 44%
    14:00 +22°C° 0 mm 3 mps 763 mmHg 41%
    15:00 +22°C° 0 mm 3 mps 763 mmHg 45%
    16:00 +21°C° 0 mm 2 mps 762 mmHg 49%
    17:00 +21°C° 0 mm 2 mps 762 mmHg 53%
    18:00 +19°C° 0 mm 2 mps 762 mmHg 59%
    19:00 +17°C° 0 mm 2 mps 762 mmHg 65%
    20:00 +15°C° 0 mm 2 mps 762 mmHg 71%
    21:00 +14°C° 0 mm 2 mps 762 mmHg 74%
    22:00 +13°C° 0 mm 2 mps 762 mmHg 78%
    23:00 +13°C° 0 mm 2 mps 762 mmHg 82%

    30 August, Friday

    Time Temperature Precipitation Wind Pressure Humidity
    00:00 +12°C° 0 mm 2 mps 762 mmHg 83%
    01:00 +12°C° 0 mm 2 mps 762 mmHg 84%
    02:00 +10°C° 0 mm 2 mps 762 mmHg 85%
    03:00 +10°C° 0 mm 2 mps 761 mmHg 85%
    04:00 +10°C° 0 mm 3 mps 761 mmHg 86%
    05:00 +10°C° 0 mm 3 mps 761 mmHg 86%
    06:00 +11°C° 0 mm 3 mps 761 mmHg 80%
    07:00 +12°C° 0 mm 3 mps 761 mmHg 73%
    08:00 +14°C° 0 mm 3 mps 761 mmHg 67%
    09:00 +17°C° 0 mm 3 mps 761 mmHg 61%
    10:00 +19°C° 0 mm 4 mps 761 mmHg 55%
    11:00 +20°C° 0 mm 4 mps 761 mmHg 49%
    12:00 +21°C° 0 mm 4 mps 760 mmHg 48%
    13:00 +22°C° 0 mm 4 mps 760 mmHg 47%
    14:00 +23°C° 0 mm 4 mps 760 mmHg 46%
    15:00 +22°C° 0 mm 3 mps 760 mmHg 51%
    16:00 +21°C° 0 mm 3 mps 759 mmHg 56%
    17:00 +21°C° 0 mm 2 mps 759 mmHg 60%
    18:00 +19°C° 0 mm 2 mps 759 mmHg 63%
    19:00 +18°C° 0 mm 3 mps 759 mmHg 66%
    20:00 +16°C° 0 mm 3 mps 759 mmHg 69%
    21:00 +16°C° 0 mm 3 mps 759 mmHg 69%
    22:00 +16°C° 0 mm 3 mps 759 mmHg 69%
    23:00 +16°C° 0 mm 3 mps 759 mmHg 69%
    Show more